Flag for Switzerland Weather past 2 weeks in Binningen, Basel-Land, Switzerland

Now
68 °F

Scattered clouds.


Feels Like: 68 °F
Forecast: 45 / 59 °F
Wind: 3 mph from Southwest

Location: Bale-Mulhouse

Current Time: May 25, 2015 at 12:15:45 PM

Latest Report: May 25, 2015 at 11:00 AM


Visibility: 13 mi

Pressure: 29.97 "Hg

Humidity: 63%

Dew point: 54 °F

Location of BinningenLocation

Historic Weather in Binningen — Graph

°F

Binningen temperature yesterday

Maximum temperature yesterday: 69 °F (at 5:00 PM)
Minimum temperature yesterday: 45 °F (at 4:00 AM)
Average temperature yesterday: 59 °F

Past Weeks' High & Low Weather Summary

 TemperatureHumidityPressure
High87 °F (May 12, 4:00 PM)98% (May 16, 6:00 AM)30.35 "Hg (May 16, 6:00 AM)
Low39 °F (May 22, 5:00 AM)24% (May 12, 4:00 PM)29.75 "Hg (May 18, 8:00 PM)
Average60 °F68%30.09 "Hg
* Reported May 10 11:00 AM — May 25 11:00 AM, Binningen, Weather by CustomWeather, © 2015

Note: Actual official high and low records may vary slightly from our data, if they occured in-between our weather recording intervals... More about our weather records

Advertising

Binningen weather history for previous 24 hours

 ConditionsComfort  
Time TempWeatherWind HumidityBarometerVisibility
11:00 AM
Mon, May 25
68 °FScattered clouds.3 mph63%29.97 "Hg12 mi
10:00 AM65 °FScattered clouds.2 mph64%29.99 "Hg12 mi
9:00 AM61 °FScattered clouds.2 mph73%30.01 "Hg12 mi
8:00 AM58 °FOvercast.2 mph84%30.01 "Hg9 mi
7:00 AM55 °FOvercast.3 mph90%30.01 "Hg9 mi
6:00 AM54 °FOvercast.1 mph90%30.02 "Hg9 mi
4:00 AM54 °FOvercast.No wind89%30.03 "Hg12 mi
3:00 AM55 °FOvercast.1 mph87%30.03 "Hg10 mi
2:00 AM56 °FOvercast.2 mph85%30.03 "Hg12 mi
1:00 AM57 °FOvercast.No wind83%30.03 "Hg12 mi
12:00 AM59 °FOvercast.2 mph79%30.03 "Hg19 mi
10:00 PM
Sun, May 24
61 °FOvercast.1 mph73%30.03 "Hg19 mi
9:00 PM63 °FOvercast.2 mph67%30.02 "Hg19 mi
8:00 PM66 °FOvercast.2 mph53%30.01 "Hg19 mi
7:00 PM66 °FOvercast.5 mph53%30.01 "Hg19 mi
6:00 PM66 °FOvercast.5 mph57%30.01 "Hg19 mi
5:00 PM69 °FOvercast.7 mph54%30.01 "Hg19 mi
4:00 PM66 °FOvercast.6 mph59%30.03 "Hg19 mi
3:00 PM67 °FOvercast.7 mph55%30.03 "Hg19 mi
2:00 PM66 °FOvercast.6 mph53%30.03 "Hg19 mi
1:00 PM66 °FOvercast.3 mph53%30.04 "Hg19 mi
12:00 PM66 °FPartly sunny.5 mph54%30.04 "Hg19 mi
Weather by CustomWeather, © 2015

See weather overviewHow to use our weather pages